Location: Bakov nad Jizerou
(50.4784°N, 14.9394°E)
Time: 13:57:17
(UTC+00:00)

Cosmos 1536 Rocket - Pass Details

Date: 22 October 2021
Orbit: 605 x 632 km, 82.5° (Epoch: 05 December)

Event Time Altitude Azimuth Distance (km) Brightness Sun altitude
Rises 17:14:50 0° 332° (NNW) 2,877 7.4 -13.5°
Reaches altitude 10° 17:18:14 10° 304° (NW) 1,964 7.0 -14.0°
Maximum altitude 17:20:05 13° 279° (W) 1,792 7.2 -14.3°
Drops below altitude 10° 17:21:56 10° 253° (WSW) 1,956 7.4 -14.6°
Sets 17:25:19 0° 225° (SW) 2,854 7.7 -15.2°
